Theta_e
304 304 305 305 305 305 305 305 305 305 305 305 305 305 305 306 306 305 305 305 305 305 305 305 305 306 306 307 307 308 308 308 308 307 307 306 305 306 306 306 306 306 306 306 307 308 309 311 313 314 314 313 312 313 313 314 314 314 319 318 317 319 313 308 309 309 307 303 300 301 302 302 302 301 301 301 300 300 301 300 299 299 299 299 299 300 300 301
304 304 304 304 305 305 305 305 305 305 305 305 305 305 305 306 306 306 306 305 305 305 305 305 305 306 306 307 308 308 308 307 307 307 307 306 306 306 306 306 306 306 306 306 307 308 309 309 309 311 311 311 310 311 312 313 313 315 318 316 319 318 307 304 305 304 303 301 299 299 300 300 300 300 301 299 295 296 297 296 298 298 298 299 300 300 300 300
304 304 304 304 304 305 305 305 305 305 305 305 305 305 305 305 306 306 306 306 305 306 306 305 305 305 306 307 308 308 308 307 308 308 307 306 306 306 306 306 306 306 306 306 307 308 309 308 309 309 309 309 309 310 311 312 312 312 315 316 316 312 304 303 303 303 302 300 299 298 299 299 298 300 299 297 294 294 293 293 295 294 294 296 298 299 299 299
304 305 305 305 305 306 306 306 306 305 306 306 306 306 306 306 306 306 306 306 306 306 306 306 305 305 306 306 307 308 308 309 308 306 306 305 306 306 305 306 306 307 307 306 306 307 307 308 308 308 308 308 308 310 311 311 311 310 314 317 311 305 304 303 302 301 300 300 299 298 299 297 296 298 297 298 297 293 291 291 292 291 292 294 296 297 298 298
305 305 305 305 306 306 306 306 306 306 306 306 306 306 306 306 306 305 306 306 306 306 306 306 305 305 306 306 307 307 308 312 309 305 306 306 306 306 306 306 306 307 306 306 307 307 307 308 308 308 308 308 308 309 310 310 311 309 308 309 307 304 303 301 301 301 300 300 299 298 298 296 296 296 294 295 295 291 290 290 290 291 292 293 295 295 296 296
306 305 306 306 306 305 306 306 306 307 307 306 306 306 306 306 306 306 306 305 306 306 306 306 305 306 306 306 307 307 308 311 309 305 306 306 306 307 306 306 306 307 307 307 307 308 308 308 308 308 308 308 308 309 310 309 309 310 306 303 303 303 302 300 300 300 300 300 298 297 297 296 295 293 291 291 290 289 289 290 291 291 292 293 294 295 296 295
306 306 306 306 306 306 306 306 306 307 307 307 307 307 307 306 306 306 306 306 306 306 306 305 306 306 307 307 307 308 308 308 307 306 306 306 307 307 306 306 306 306 307 307 308 308 308 308 308 308 307 308 308 308 309 308 307 309 305 301 301 301 300 299 299 299 300 299 297 298 297 295 294 292 291 290 289 290 290 291 292 292 293 294 294 295 295 294
306 306 306 306 306 307 307 307 306 307 307 306 307 307 307 307 306 307 306 306 306 306 306 306 307 307 308 310 309 308 307 306 306 306 306 306 307 306 306 306 306 307 307 307 308 308 308 308 308 308 308 308 309 310 309 310 309 307 304 301 300 300 299 298 299 299 299 297 297 298 295 293 293 292 290 289 289 290 292 293 293 294 294 295 294 294 293 294
306 306 306 306 307 307 307 307 307 307 307 306 307 307 308 307 307 307 307 306 306 306 306 307 308 308 308 311 311 308 306 306 306 306 306 307 307 306 306 306 306 307 307 308 307 308 308 308 308 308 308 307 309 311 310 312 312 306 303 301 300 299 299 299 298 298 297 297 299 297 294 293 293 294 291 288 290 291 293 293 293 295 295 294 294 293 293 293
306 306 306 307 307 307 307 307 307 307 307 307 307 308 308 307 307 307 307 306 306 306 307 307 307 309 310 310 309 308 306 306 306 306 306 306 307 306 306 306 306 306 307 308 307 308 307 307 308 307 308 308 310 310 310 312 310 305 303 301 300 300 299 299 298 298 298 298 300 297 294 295 294 295 292 289 290 292 294 293 293 294 294 293 293 293 293 293
306 306 306 307 307 307 307 307 307 307 307 307 307 308 308 307 307 307 307 306 306 306 308 307 307 308 309 308 307 307 306 306 306 306 306 306 307 307 307 307 306 306 307 307 307 307 306 306 307 307 309 310 309 309 309 309 306 303 302 301 300 299 299 299 298 299 299 298 299 298 295 294 294 294 291 289 291 293 294 293 292 293 292 292 292 292 292 292
306 306 307 307 307 307 307 307 307 307 307 307 308 309 308 308 307 307 307 306 306 307 309 309 309 308 308 307 307 306 306 306 306 306 306 306 307 307 307 307 306 306 306 307 307 306 306 306 307 309 309 309 309 310 309 308 305 303 303 302 300 301 301 300 299 299 300 299 298 300 300 296 292 292 290 290 291 292 293 292 291 292 291 291 291 291 291 291
306 306 307 306 307 307 307 307 307 307 307 307 308 308 309 308 308 307 306 306 307 308 309 309 309 308 308 307 306 306 306 306 306 306 306 306 307 307 307 307 307 307 307 306 306 307 307 308 309 309 308 309 309 310 309 306 306 305 304 303 304 307 306 301 300 301 300 300 298 302 308 298 292 292 290 290 292 293 292 290 290 290 290 290 290 291 291 291
306 306 306 306 307 307 307 307 307 307 307 308 308 308 308 308 308 308 306 306 306 308 309 309 308 308 307 307 306 306 306 306 306 306 307 306 307 307 306 307 307 307 307 306 307 307 308 309 310 309 308 309 308 309 313 311 309 309 307 307 311 312 307 300 300 301 302 301 298 305 309 297 293 292 290 291 292 293 291 288 289 289 289 290 290 290 290 290
306 306 306 307 307 307 307 307 307 307 307 308 308 308 308 307 308 307 307 307 307 309 310 309 309 308 307 306 306 306 306 306 306 307 307 307 307 307 307 307 307 307 307 307 307 307 308 309 309 307 306 307 308 314 320 318 316 316 313 312 313 311 306 302 299 299 303 301 298 305 306 295 294 293 291 291 291 292 290 288 289 288 288 289 289 290 290 290
306 306 306 307 307 307 307 307 307 307 307 308 307 307 308 308 308 307 307 308 309 310 310 309 309 308 307 306 306 306 306 306 306 307 307 307 307 307 308 308 309 309 308 308 308 308 308 308 307 306 305 305 308 314 318 318 318 317 315 313 310 309 308 306 301 297 300 301 299 302 302 295 294 293 291 291 291 292 290 288 289 288 288 289 289 290 290 290
307 306 307 307 307 307 307 307 307 307 308 307 307 308 308 308 308 307 308 309 310 310 309 309 308 308 307 306 306 306 306 306 306 307 307 308 308 308 308 308 309 309 309 309 308 308 308 307 307 305 305 303 304 313 317 315 315 314 315 313 308 308 310 307 304 298 297 301 301 297 297 295 294 292 291 291 291 291 289 289 289 288 289 288 289 290 290 290
306 306 307 307 307 307 307 307 307 307 308 307 308 308 309 309 309 309 309 309 309 308 309 308 308 309 307 306 306 306 306 306 307 307 308 309 309 309 309 308 309 308 308 308 307 308 307 305 306 306 306 304 303 313 316 312 311 311 313 313 309 308 310 308 305 300 297 298 298 296 295 295 293 292 291 290 291 291 289 289 289 289 289 288 289 289 290 290
305 306 307 307 308 307 307 307 306 308 307 307 308 308 308 308 309 309 308 308 307 308 309 307 307 308 307 306 306 305 306 306 307 308 308 309 309 309 309 309 309 307 307 307 306 305 305 305 306 307 307 307 304 307 310 310 311 310 309 310 311 309 306 305 302 298 297 297 296 296 296 294 293 292 291 291 291 291 290 289 289 289 289 289 289 289 290 290
305 306 306 307 307 307 308 307 306 307 307 308 308 308 309 307 308 308 306 307 306 306 307 306 306 306 306 306 306 306 306 306 308 308 308 309 309 309 309 308 307 307 306 307 308 305 304 306 306 306 306 306 304 302 304 307 309 309 307 307 309 307 303 302 300 297 297 300 297 295 295 294 294 293 291 291 291 290 290 289 289 289 289 289 289 290 290 290
306 306 307 307 307 307 308 307 306 306 306 308 309 311 312 309 309 308 306 306 306 306 306 306 306 306 306 306 305 306 306 307 308 308 308 308 308 308 308 307 308 308 305 305 306 304 303 305 305 305 304 302 302 303 304 305 308 308 306 307 305 304 304 301 301 298 297 301 297 294 295 294 294 293 291 291 290 290 290 289 289 289 289 289 289 290 290 290
306 306 307 306 307 307 308 307 306 306 305 306 307 310 312 310 309 308 307 307 306 306 306 306 307 306 306 306 306 306 306 306 307 307 308 306 307 307 305 305 306 306 304 306 308 305 304 305 304 303 301 300 302 303 304 304 305 306 306 309 307 303 304 302 302 299 297 300 298 294 296 295 294 294 292 291 291 290 291 291 291 290 290 290 290 290 290 290
306 306 307 306 307 307 307 308 306 306 306 305 307 309 310 309 309 309 309 309 308 307 306 306 306 306 306 306 305 305 305 305 305 306 307 306 305 305 303 302 303 303 303 307 309 307 306 305 303 300 298 302 305 302 306 308 304 305 306 308 306 303 305 305 302 298 296 298 298 295 296 295 294 294 292 292 292 292 292 291 291 291 291 291 291 291 291 291
306 306 306 306 306 306 307 307 306 307 306 306 307 309 309 309 309 309 308 309 309 308 307 306 306 306 306 306 305 305 306 305 304 305 306 307 306 305 304 302 303 304 302 303 305 305 305 302 300 300 299 303 305 302 307 311 307 306 308 306 304 303 305 305 302 299 298 297 296 297 299 298 295 294 294 293 292 292 292 292 291 291 291 291 291 291 291 291
306 306 306 306 306 306 307 307 307 307 306 307 308 308 309 309 310 310 310 312 310 307 308 307 306 306 305 306 306 305 306 305 304 305 305 307 307 307 306 304 305 305 302 303 304 303 302 299 300 304 305 303 304 304 303 307 309 306 306 306 304 304 305 304 302 303 305 303 298 298 302 303 297 294 294 293 293 292 291 291 291 291 291 291 291 291 291 291
306 307 307 306 306 306 308 309 308 306 306 308 308 309 310 311 313 310 312 322 315 305 308 308 306 307 305 306 306 305 308 307 304 304 305 306 306 308 308 306 305 305 304 303 303 302 301 299 300 304 307 304 304 304 300 304 311 304 302 305 303 305 308 306 304 306 309 307 300 298 301 303 300 297 295 293 293 292 292 291 291 291 291 291 291 291 291 291
307 307 307 307 307 306 308 309 307 306 307 307 308 310 310 312 313 306 313 326 316 305 307 308 306 307 306 305 305 307 309 308 305 304 304 305 305 307 309 309 309 306 303 303 303 302 301 302 301 301 305 304 302 302 300 303 307 302 300 301 301 303 306 306 306 307 308 304 300 298 299 300 302 300 295 293 294 293 292 291 291 291 291 291 291 291 291 291
307 307 306 307 306 306 307 307 306 307 307 306 308 310 309 313 311 308 318 320 309 305 307 306 306 306 305 305 305 306 307 306 305 304 303 304 304 304 306 306 306 304 301 303 305 301 300 303 301 301 303 302 300 300 300 301 303 304 302 300 300 302 305 307 307 307 305 303 303 301 298 298 301 300 293 293 294 293 293 292 291 291 291 291 292 291 292 292
306 306 307 306 306 306 306 306 306 306 306 306 307 308 310 311 308 314 323 313 304 308 308 305 307 306 305 305 305 304 304 305 305 304 303 304 304 303 303 302 301 302 300 302 305 301 300 302 300 300 301 301 301 300 301 302 302 302 299 299 302 302 304 307 306 307 306 303 305 303 298 298 301 301 296 294 296 295 295 293 292 292 292 292 292 292 292 292
306 306 306 306 306 306 306 306 306 305 307 306 306 307 308 309 315 321 317 306 305 308 306 305 306 305 306 309 308 304 303 304 303 303 302 302 303 302 303 302 301 304 304 303 305 302 301 302 301 301 300 299 300 299 298 300 298 297 299 303 306 302 302 305 304 307 304 302 307 302 297 298 300 302 299 297 299 300 299 297 294 292 292 292 293 293 293 292
307 307 306 307 306 305 306 306 305 305 307 307 306 307 306 310 324 327 310 302 307 308 306 307 305 306 308 309 308 305 305 303 301 303 304 302 303 302 302 303 304 309 311 306 306 304 303 304 301 300 299 297 299 299 297 297 295 297 301 304 303 300 301 305 307 308 302 301 305 300 298 299 299 302 301 298 299 297 298 301 297 292 292 292 293 293 293 293
306 307 306 307 306 306 306 305 305 307 307 307 307 308 309 312 317 317 309 306 308 307 306 306 305 306 309 309 307 306 306 304 300 302 305 302 301 301 300 301 303 308 309 305 306 306 304 303 300 300 299 298 300 301 301 301 300 300 303 305 305 305 302 303 307 304 299 300 299 297 297 298 299 301 300 301 300 295 293 297 296 293 293 294 294 294 294 293
307 307 306 307 306 306 306 305 306 306 307 309 307 309 320 322 310 305 308 310 305 304 305 305 307 308 309 310 308 306 306 304 302 301 301 302 303 302 300 298 298 303 305 304 306 307 304 302 301 302 300 298 299 300 299 302 301 299 301 304 306 305 301 300 302 298 297 300 298 294 297 299 299 300 300 302 300 295 293 295 295 295 295 295 295 295 294 293
307 308 307 308 308 307 306 305 305 307 309 309 309 315 322 318 307 303 308 310 305 305 305 304 308 309 308 308 306 305 306 303 303 302 302 304 305 305 303 300 298 301 305 304 302 304 303 301 301 300 298 298 299 299 297 299 299 299 299 300 302 304 300 299 301 299 298 301 298 294 297 303 302 300 300 297 294 293 294 295 295 295 295 295 295 295 294 294
307 308 308 308 310 309 308 307 305 308 309 307 313 322 319 309 305 306 308 308 306 307 306 305 310 311 310 309 306 305 304 302 303 305 305 303 303 302 302 301 299 300 303 303 299 300 302 301 301 299 297 298 299 298 297 298 298 296 297 299 299 300 301 300 300 299 297 298 301 300 300 303 301 298 295 292 292 293 294 294 294 294 294 295 294 294 294 294
307 307 308 308 309 309 310 309 308 308 308 310 317 319 312 305 304 307 306 304 304 306 306 307 310 312 311 310 309 305 303 302 303 306 305 301 300 300 300 300 298 298 301 302 300 301 302 303 302 300 298 298 298 297 296 296 296 296 296 298 296 295 301 303 299 297 295 296 299 298 298 299 297 297 296 292 294 294 292 292 293 293 294 294 294 294 294 294
307 307 307 308 308 308 309 309 311 310 307 312 318 312 305 303 304 306 305 303 303 304 307 308 306 307 308 308 308 307 304 302 303 306 305 300 299 299 300 300 297 296 298 299 300 301 303 304 303 301 300 298 297 298 297 294 295 298 298 297 295 295 299 300 298 299 298 297 297 296 297 299 296 297 299 296 297 298 294 292 291 292 293 293 293 294 293 293
306 307 306 307 307 308 309 307 310 311 306 311 315 308 304 304 303 303 303 302 303 305 309 310 305 303 305 306 306 306 306 304 305 306 303 301 300 298 299 300 297 296 296 297 300 299 300 302 301 300 300 299 298 299 300 297 294 296 296 295 295 296 298 297 296 298 296 295 298 298 296 297 297 300 303 301 302 303 299 294 291 291 292 292 293 293 293 293
307 307 306 306 306 306 308 307 307 307 307 312 312 307 305 305 302 301 303 302 303 306 309 307 304 303 305 304 304 305 305 304 304 304 301 301 301 298 297 297 297 298 296 297 300 298 298 301 299 298 298 298 300 299 300 301 296 295 296 296 297 299 300 298 295 297 297 296 299 298 296 299 300 303 304 300 300 302 302 299 293 290 291 292 293 294 293 293
309 307 306 306 306 306 306 306 305 309 311 310 309 307 304 304 302 302 303 303 302 304 305 305 304 305 305 303 303 303 304 304 304 303 302 301 301 299 297 296 298 300 297 296 298 297 298 299 298 299 298 297 300 299 300 301 298 298 300 298 297 297 296 296 295 296 298 299 299 298 298 301 299 299 300 299 300 300 299 299 294 290 292 294 294 294 294 293
308 308 307 305 307 306 306 307 305 306 309 307 307 307 304 302 302 303 303 303 303 302 303 304 305 305 305 304 303 302 305 306 304 303 303 301 301 301 298 297 298 299 297 298 299 297 297 297 298 301 300 300 302 298 296 298 298 300 301 300 300 298 296 296 295 295 296 298 300 298 297 298 297 298 300 298 298 296 294 293 292 292 295 295 294 294 293 292
308 310 308 305 306 306 306 308 302 302 308 307 306 306 305 303 302 302 302 303 303 302 301 303 304 304 304 304 303 303 305 306 304 303 303 301 301 300 298 297 298 298 297 298 298 296 296 298 299 300 299 299 298 295 293 294 295 297 297 297 298 300 300 299 298 298 296 294 295 295 295 297 296 296 297 295 293 293 293 293 292 294 295 294 294 293 292 292
306 307 307 306 306 304 306 309 302 303 306 304 303 303 304 304 302 302 303 302 303 302 302 303 302 302 302 302 303 304 303 303 303 302 303 302 300 298 297 297 297 297 297 298 297 296 297 298 298 300 301 298 295 294 293 292 294 297 297 296 296 299 300 300 300 299 297 295 295 293 294 298 296 291 290 292 291 292 294 294 294 294 294 294 293 293 292 291
304 305 305 306 307 305 309 312 307 305 304 302 302 303 302 302 302 304 304 302 302 302 303 304 302 300 300 300 303 303 301 301 302 301 301 302 300 297 297 297 296 296 296 297 298 296 296 297 296 299 303 300 299 300 298 296 295 298 299 297 297 298 297 296 295 294 295 296 295 294 295 297 296 293 292 292 291 291 293 294 294 293 293 294 293 292 292 291
305 305 303 305 305 305 307 307 305 306 307 306 306 304 303 302 302 303 303 301 301 301 301 302 300 300 301 300 302 302 300 301 301 300 300 300 299 298 297 297 295 295 294 295 295 294 296 297 296 297 298 297 299 301 300 299 297 297 298 297 297 297 296 296 295 294 296 295 292 294 297 295 294 297 297 295 294 293 293 293 293 293 293 294 293 292 291 290
306 307 306 305 304 303 303 302 302 306 309 310 308 304 304 304 302 302 302 301 301 301 300 300 299 301 302 301 303 304 301 300 300 300 302 302 300 299 298 297 296 295 294 294 294 296 298 297 295 297 298 297 298 298 296 296 295 294 296 296 296 296 294 295 297 296 296 295 292 294 296 294 294 295 295 295 295 295 293 291 292 292 292 293 292 292 291 290
308 309 308 307 305 305 306 303 302 304 305 307 307 303 305 306 302 302 302 300 301 301 301 300 299 301 303 302 304 304 302 301 300 300 302 301 300 298 297 298 297 296 296 294 293 296 298 297 296 297 297 295 295 295 293 293 293 293 294 295 296 296 293 294 296 296 295 295 294 294 294 294 294 293 293 293 293 293 291 290 291 292 292 292 292 291 290 289
309 308 306 306 306 308 309 306 303 303 302 305 306 303 305 306 304 304 304 301 301 301 301 303 301 301 302 302 302 304 303 302 301 300 300 300 299 298 297 297 296 297 296 293 293 294 294 295 295 295 297 298 295 294 293 293 293 293 293 293 293 294 294 294 295 294 293 294 294 294 294 294 294 293 294 294 293 292 292 292 292 292 292 292 291 290 289 289
307 306 304 304 305 305 306 304 302 302 302 304 307 305 306 307 303 303 303 302 303 301 300 304 305 302 303 302 302 304 304 302 301 301 301 300 299 299 300 299 296 295 295 294 293 292 293 298 297 294 296 298 295 294 293 292 292 293 293 292 291 292 293 294 294 293 293 293 294 293 294 293 293 293 293 293 293 293 292 292 292 292 292 291 290 289 289 288
306 305 303 304 305 303 304 304 303 306 304 304 306 304 305 308 305 302 301 302 306 304 301 304 306 303 302 302 302 304 304 302 302 301 301 300 299 298 301 301 298 295 294 295 295 291 292 298 298 294 296 298 297 296 294 292 293 293 293 293 292 291 292 292 292 293 292 293 293 293 293 293 293 293 293 293 293 292 292 291 291 291 291 290 289 289 288 288
305 304 303 306 305 303 305 303 303 310 311 306 306 304 304 308 307 303 302 301 302 304 302 303 304 302 300 300 302 303 302 301 301 301 300 300 299 299 298 298 298 297 296 295 294 293 293 296 296 294 295 297 297 296 295 293 293 293 293 293 292 292 293 293 292 292 293 294 293 292 292 293 293 292 291 292 291 290 290 290 290 290 290 289 289 288 288 288
305 304 304 307 306 303 303 302 303 309 308 303 303 303 304 306 303 301 304 301 299 300 300 299 301 301 302 303 302 302 301 299 299 299 299 298 298 298 297 296 297 299 300 297 294 293 293 295 296 294 295 298 296 294 294 293 293 294 295 295 294 293 293 293 292 292 292 293 294 294 294 294 293 292 292 292 290 289 290 290 290 290 290 289 289 288 288 288
Wind_Speed
7 7 7 7 6 6 5 4 3 3 3 3 3 3 2 2 1 1 2 3 3 2 3 4 4 5 4 7 11 11 9 8 5 2 1 5 5 4 6 5 3 3 2 4 6 7 8 8 9 9 10 8 6 7 5 5 6 4 2 2 2 1 1 2 2 3 7 3 7 14 15 15 9 10 16 26 32 30 33 35 32 32 31 26 22 22 22 21
7 7 7 7 7 6 6 5 4 3 2 1 1 1 2 2 2 1 2 3 3 3 3 4 4 5 4 8 10 9 8 7 4 3 4 7 6 6 6 6 5 3 2 3 5 5 6 5 5 7 9 7 5 6 5 6 8 4 3 3 3 3 1 6 2 6 12 10 13 20 22 22 12 8 16 17 19 27 28 25 27 31 27 24 20 19 18 18
6 6 6 6 6 6 6 5 4 4 3 2 1 1 1 2 2 2 2 2 3 2 3 4 3 3 3 7 10 7 7 6 2 6 8 9 8 7 7 7 6 4 2 3 4 4 5 4 3 3 6 7 6 7 6 7 8 3 3 3 3 6 4 12 11 17 20 21 21 19 27 32 19 11 17 19 20 27 20 16 21 25 25 25 21 18 17 17
5 5 5 6 6 6 5 5 5 4 3 3 2 1 1 2 3 3 2 2 2 2 2 3 3 3 2 7 10 8 6 3 4 9 10 9 9 8 7 7 6 5 3 2 3 3 4 4 4 2 4 5 4 6 6 8 7 1 3 3 5 8 7 13 20 25 22 25 24 20 29 30 24 21 15 19 19 16 15 16 17 19 22 25 23 21 19 19
5 5 6 6 7 7 7 7 6 6 5 4 3 3 2 2 2 3 3 3 3 2 2 2 3 2 1 5 9 9 5 0 6 9 9 8 8 7 7 7 6 5 3 2 1 2 2 3 4 3 4 3 2 3 5 8 8 3 5 3 9 11 9 11 21 24 21 26 24 20 22 16 22 30 23 26 17 6 12 16 19 21 22 24 24 24 22 22
5 6 7 7 8 9 9 9 9 8 7 6 5 4 3 3 3 2 3 3 3 2 1 1 1 2 2 4 6 5 4 2 7 9 8 7 6 7 7 6 5 4 2 1 2 2 1 2 3 3 2 1 2 1 2 7 7 4 6 9 12 18 15 13 21 22 25 29 22 19 21 22 28 26 26 35 22 13 17 17 22 23 22 23 23 23 23 24
6 7 8 8 9 9 10 10 10 10 8 8 7 5 3 3 3 2 2 2 2 1 1 2 2 2 4 7 8 7 7 7 9 9 7 7 6 6 6 4 4 3 1 2 3 2 2 3 3 2 2 3 1 1 1 3 9 9 5 11 19 28 25 21 27 28 33 35 26 28 27 26 29 18 21 31 22 19 21 19 22 21 21 20 20 22 22 22
7 7 8 8 8 9 10 10 10 10 9 9 9 7 4 2 0 2 3 3 2 2 2 3 3 3 6 7 7 9 13 13 11 9 7 6 5 4 4 3 2 1 0 2 2 2 3 5 6 5 2 2 2 2 2 7 12 10 8 12 20 27 28 30 35 36 40 36 34 40 32 28 32 26 23 22 18 20 19 18 19 17 17 17 18 20 18 19
8 8 8 8 8 9 10 9 10 9 9 8 9 8 6 5 3 3 4 4 4 5 5 5 4 5 7 6 5 7 13 14 11 10 9 7 4 5 3 2 0 2 2 2 1 2 2 4 5 4 2 2 3 2 4 5 5 7 14 18 21 24 25 31 32 29 32 30 34 35 23 23 22 18 20 15 16 18 15 16 15 13 14 16 17 17 16 16
8 8 8 8 9 10 10 10 9 9 9 8 8 7 6 6 4 4 6 6 6 8 9 10 8 8 8 7 7 6 10 14 14 10 10 9 5 5 3 1 2 2 3 2 2 3 3 3 3 3 3 3 4 4 6 6 9 19 25 22 23 23 19 28 29 27 29 24 32 30 14 16 11 7 9 7 13 12 10 14 12 11 14 15 15 14 14 13
7 7 7 8 8 9 10 10 10 9 8 7 6 6 6 7 6 6 7 7 9 10 12 13 13 13 11 11 14 9 10 16 17 15 12 9 5 4 3 2 3 2 2 1 3 4 4 3 2 2 2 2 3 6 9 12 22 31 31 19 17 20 17 23 26 24 23 19 32 35 19 21 16 9 7 8 12 8 9 14 13 13 14 15 14 13 12 11
6 7 7 7 7 9 10 10 10 9 7 6 5 5 6 7 7 7 7 8 11 11 10 10 11 10 8 14 19 12 13 16 18 18 13 9 5 5 4 4 4 4 3 2 4 5 5 4 4 4 3 2 2 5 8 15 25 30 29 15 7 13 10 9 10 10 13 12 14 19 13 15 13 7 9 12 13 9 11 15 14 15 15 15 14 13 13 12
5 6 6 7 8 9 9 9 10 9 7 6 4 4 5 5 7 7 8 9 11 11 8 8 8 5 6 13 16 14 15 16 17 16 12 8 7 7 7 6 6 7 6 6 6 7 7 5 7 10 9 5 3 5 6 11 18 16 15 10 6 6 4 8 4 5 10 4 6 4 3 5 4 8 11 11 11 9 13 16 15 16 16 16 15 14 15 13
4 4 5 6 7 8 9 9 9 9 8 7 5 4 4 5 8 9 10 10 11 11 7 7 7 6 9 11 12 15 15 16 16 13 12 10 8 8 9 9 9 10 10 10 11 12 11 7 9 11 11 7 4 5 6 6 8 6 5 4 2 3 2 9 11 4 6 6 3 3 4 1 3 7 9 9 7 7 14 16 15 16 16 17 16 16 16 14
3 3 5 6 7 7 9 9 9 9 8 7 6 5 6 8 11 11 12 11 12 11 7 7 7 7 11 10 10 14 15 15 16 14 13 12 10 10 11 12 13 13 13 12 13 14 12 9 11 11 9 9 7 5 4 4 4 4 3 0 3 3 4 5 17 12 2 5 11 8 5 1 4 8 9 10 7 8 15 15 13 15 16 16 16 16 15 15
2 3 4 5 6 6 8 8 7 8 8 8 10 11 11 11 12 13 13 12 12 9 6 6 8 9 9 7 8 14 18 19 18 12 10 12 12 11 12 13 13 13 13 13 12 11 9 9 14 17 15 10 7 4 5 5 4 4 3 2 1 4 3 1 11 16 5 2 11 8 6 3 3 10 11 10 9 10 15 14 13 14 14 15 15 14 15 14
2 3 3 4 5 5 7 6 6 7 7 10 13 13 13 14 13 13 12 11 11 7 5 6 6 9 11 8 10 15 19 20 17 9 6 10 11 10 10 8 10 12 12 13 11 9 10 10 9 10 13 9 4 4 5 3 3 4 3 3 1 4 3 1 2 13 14 7 8 9 7 5 4 12 13 10 10 11 15 15 13 13 13 13 14 14 14 13
3 3 3 3 3 4 5 4 6 8 9 12 14 15 14 13 11 11 10 9 8 7 6 6 5 5 8 14 14 12 16 18 15 9 5 8 8 7 8 6 6 8 10 11 9 10 11 11 7 2 6 7 5 6 5 2 2 0 1 3 2 3 4 3 0 5 11 11 8 9 8 5 6 9 12 12 10 11 15 14 13 14 13 14 14 14 13 13
2 2 2 2 2 3 4 4 7 11 15 18 21 22 20 18 16 15 17 14 11 8 4 8 9 4 2 14 17 9 12 19 16 9 5 7 8 7 9 9 7 7 8 7 8 12 10 8 9 4 5 6 4 4 4 6 5 4 2 4 4 4 3 2 2 3 8 10 7 6 7 7 6 6 11 14 11 12 14 14 14 14 14 15 15 14 14 13
2 1 1 1 2 3 3 4 7 12 13 14 16 16 14 17 16 16 24 29 25 17 11 11 12 8 4 13 18 9 11 20 20 14 8 5 8 9 10 10 11 13 9 4 4 11 12 8 6 3 5 6 5 2 4 4 5 6 5 6 5 5 3 0 2 3 6 7 4 3 7 6 6 6 10 14 13 13 15 15 16 16 16 17 16 16 15 14
2 1 1 1 2 2 2 3 5 9 8 8 7 3 3 6 8 10 20 25 22 21 20 18 14 11 8 12 19 12 11 19 22 21 13 5 4 4 8 8 9 10 7 3 5 9 13 8 4 5 5 3 4 1 4 6 7 7 6 6 6 4 2 1 3 1 3 5 2 3 7 5 4 5 9 15 13 14 18 18 18 19 18 19 18 17 16 14
2 1 1 1 1 2 2 2 3 4 5 7 8 3 4 10 13 17 19 16 14 16 18 19 18 16 11 11 17 16 16 19 20 23 19 13 9 5 9 11 7 4 5 5 6 6 10 5 5 9 6 2 8 6 8 10 7 6 4 5 5 3 2 3 3 3 6 4 4 3 5 3 3 3 8 15 14 14 19 18 17 20 20 21 21 19 19 17
3 2 3 3 2 2 1 2 2 2 3 4 7 8 14 19 19 20 19 14 10 11 14 17 20 20 15 11 13 18 24 20 17 22 21 18 18 16 16 13 8 5 6 6 5 4 5 2 7 9 7 5 9 8 7 8 6 5 5 5 2 1 3 1 0 3 5 4 5 6 4 0 3 3 5 14 15 13 18 19 17 19 20 21 21 21 21 20
4 5 4 4 3 2 1 2 1 2 1 2 9 15 19 20 18 17 15 10 6 8 12 13 16 19 17 13 8 12 22 21 17 21 19 14 14 14 14 11 9 8 6 7 9 8 4 4 9 6 7 7 8 9 9 6 5 4 3 5 2 2 2 3 2 3 4 6 5 6 3 3 4 4 6 9 11 11 15 19 19 21 21 19 20 22 23 22
6 6 5 4 3 2 2 3 1 2 2 3 13 21 20 17 14 10 7 7 4 6 10 8 11 16 16 14 5 4 12 18 21 20 16 13 7 6 7 7 7 4 1 6 10 8 4 7 8 4 7 9 8 8 6 4 3 3 1 5 5 4 3 5 4 3 4 4 2 5 3 4 3 6 8 6 6 8 12 18 21 24 25 23 24 25 25 24
6 6 5 4 2 2 1 3 1 2 4 7 16 23 19 14 9 6 3 5 3 6 8 6 8 12 16 17 6 3 4 9 16 17 13 12 7 5 3 3 4 3 5 5 6 4 3 8 7 6 6 8 8 5 2 3 5 2 2 5 6 5 5 6 6 3 2 1 3 4 3 3 3 5 9 6 5 8 10 14 20 24 26 27 29 28 27 26
6 6 5 3 2 1 1 4 3 3 5 9 18 23 17 12 8 3 2 5 4 4 6 7 6 9 13 17 10 4 1 6 8 16 16 11 7 8 5 4 4 1 3 3 4 1 2 8 9 7 7 6 7 4 2 3 5 1 1 4 5 6 6 6 7 4 2 2 1 1 2 1 3 5 4 6 6 8 9 13 18 24 27 29 31 30 29 27
6 6 4 3 1 1 2 3 4 4 5 9 17 21 16 12 6 2 4 5 3 3 4 5 5 9 10 15 18 11 4 6 4 11 16 13 9 11 9 4 3 1 4 4 4 2 1 5 7 6 7 5 3 2 4 2 3 4 2 2 2 7 7 6 6 3 1 3 1 3 1 1 5 4 2 4 5 8 12 14 17 24 29 31 32 32 31 29
7 6 5 2 1 2 2 3 4 4 5 8 15 19 16 11 4 3 5 3 3 2 3 4 4 9 10 10 17 16 11 11 6 6 12 14 13 15 11 6 7 7 11 9 6 2 1 1 2 4 5 3 3 5 3 3 1 5 1 4 3 5 4 3 5 3 3 3 2 5 2 1 5 4 2 2 4 9 12 12 16 26 32 33 35 34 33 31
9 7 5 2 1 1 3 3 3 4 5 8 13 16 16 10 3 5 4 0 2 2 4 5 3 8 11 7 9 13 10 9 9 8 12 14 16 18 13 9 11 9 9 10 6 1 2 1 0 3 3 3 4 4 1 3 3 5 4 4 4 5 4 3 2 3 5 2 5 5 3 3 2 4 3 4 5 7 8 7 11 21 29 34 37 36 35 33
10 8 6 3 0 1 3 3 3 4 6 10 14 18 16 6 4 6 2 1 1 3 4 4 3 5 8 5 4 9 7 7 11 10 10 9 11 15 11 6 8 6 4 6 5 4 6 3 2 2 4 5 2 1 1 2 5 5 4 3 3 3 4 4 5 4 4 3 6 4 2 3 2 5 5 7 8 6 7 7 7 15 26 34 37 36 34 32
10 9 7 4 2 2 3 4 4 7 10 15 20 19 12 3 4 3 0 2 1 2 2 2 3 4 4 4 4 5 3 5 9 8 5 4 5 7 6 2 1 3 3 2 2 5 4 2 5 5 5 8 5 1 3 6 8 7 4 5 4 2 4 3 3 3 1 5 4 2 2 1 4 7 6 8 10 10 12 12 11 15 24 30 34 34 33 31
8 9 9 8 6 4 4 6 6 11 17 21 20 11 6 5 2 1 3 2 0 1 1 1 3 3 2 4 4 4 3 3 5 6 2 3 4 2 2 3 1 2 1 1 1 3 2 4 7 4 3 7 5 3 2 3 5 5 3 4 4 2 3 2 4 3 3 5 3 1 2 1 4 6 6 7 8 11 14 14 14 15 18 23 27 29 30 30
8 9 9 9 9 8 8 8 9 15 20 19 11 4 7 5 1 1 2 2 1 2 2 1 3 4 4 4 2 3 3 2 2 5 4 3 5 3 4 6 5 3 3 3 1 1 2 2 4 2 2 5 3 3 3 2 2 3 2 5 3 3 3 2 3 2 4 5 5 4 1 3 3 3 5 6 8 8 10 11 12 14 15 17 20 24 28 29
8 9 9 9 10 9 9 10 12 17 19 12 6 6 6 2 3 1 1 3 1 2 3 2 3 4 4 3 3 2 2 1 2 4 4 3 2 2 3 4 5 4 3 2 0 1 3 2 4 0 1 1 2 1 3 4 2 2 2 4 2 2 4 2 3 4 2 2 4 3 2 5 4 3 3 4 7 6 9 11 12 14 16 16 19 24 27 28
10 9 10 10 9 8 7 7 11 15 15 8 8 6 2 2 2 2 1 1 0 1 3 3 4 4 3 4 3 4 2 2 3 3 3 2 1 1 1 3 3 3 3 3 1 1 2 2 4 3 2 1 2 3 1 3 0 1 3 1 2 3 5 3 1 2 3 1 3 2 3 5 3 3 3 4 6 7 8 12 16 17 17 17 22 25 26 27
11 12 14 13 11 10 6 4 8 12 10 7 8 3 2 2 2 3 1 1 1 1 2 1 2 2 2 3 3 5 4 2 2 3 2 1 1 1 2 2 1 2 2 2 1 2 4 1 4 1 0 2 2 4 4 3 2 2 1 2 2 2 4 4 0 4 4 1 4 2 4 5 3 3 5 4 6 9 9 12 17 18 19 21 25 26 26 26
10 13 16 16 14 10 7 6 5 11 10 9 6 3 2 1 1 2 1 1 1 2 4 2 0 0 1 0 2 5 4 2 2 3 2 0 1 1 1 2 1 3 4 1 2 0 3 1 5 1 2 2 2 3 4 4 3 4 4 3 3 2 0 1 1 0 1 2 5 4 5 4 3 4 4 4 7 9 9 9 11 17 22 26 28 28 27 26
5 9 14 16 14 11 9 5 5 10 11 9 3 2 2 1 0 0 1 1 1 2 4 1 0 1 1 2 1 4 3 2 1 2 1 0 1 0 1 1 2 5 7 2 3 1 1 3 3 3 1 2 2 2 2 3 3 4 4 2 1 3 3 2 1 3 2 2 3 4 5 3 6 6 5 7 8 8 9 7 8 18 26 28 29 28 26 26
2 5 9 10 7 9 8 3 7 10 9 4 3 2 1 2 1 2 2 1 1 2 2 1 1 2 1 1 1 1 2 2 1 2 1 0 0 0 1 0 2 5 7 3 3 1 1 2 2 4 3 1 1 1 4 4 1 1 2 2 1 1 1 0 0 2 4 3 2 3 5 6 7 5 6 9 9 8 9 8 10 19 24 25 26 25 24 24
4 4 6 8 4 2 2 6 10 10 6 2 3 2 1 2 2 2 3 2 2 3 2 3 3 2 1 1 0 1 1 2 2 1 0 0 1 0 1 1 1 4 4 3 3 2 1 1 2 3 3 2 4 3 3 5 4 4 3 3 3 2 2 1 3 2 2 3 4 2 5 9 6 4 6 8 8 9 12 12 13 19 21 21 22 22 22 23
6 3 5 10 6 2 6 9 9 6 4 3 4 3 2 3 2 3 4 3 3 4 4 3 2 2 2 1 0 0 1 1 1 1 1 1 1 2 1 0 1 2 1 1 2 1 1 3 1 3 4 4 5 3 1 3 3 3 2 2 3 3 5 5 3 4 1 1 2 3 3 9 5 5 6 8 9 12 14 14 17 19 19 19 20 20 22 23
10 6 5 6 6 7 11 9 6 5 5 3 4 5 4 3 2 3 3 4 3 2 3 2 1 1 1 1 1 1 1 1 1 1 1 2 1 2 3 1 1 0 2 0 2 1 1 3 2 4 4 3 4 5 3 2 2 1 2 2 4 3 3 5 5 4 2 3 2 2 3 8 5 3 5 7 9 11 13 15 18 21 21 21 21 22 23 23
18 16 12 6 2 3 6 5 2 2 3 3 5 5 4 4 4 3 2 3 2 1 2 1 0 1 1 1 2 1 1 1 1 1 1 2 2 2 3 1 0 1 1 1 1 1 1 0 2 2 5 6 6 6 6 4 1 2 3 2 4 4 6 4 2 3 1 5 6 4 5 9 6 2 3 5 6 9 15 18 20 21 23 24 24 24 24 23
12 14 18 15 8 7 8 9 10 6 3 4 5 2 3 5 4 3 2 2 3 2 2 1 1 1 1 1 2 1 0 0 1 1 1 1 2 3 4 2 1 2 2 2 2 2 1 2 2 2 1 3 4 4 4 3 2 2 2 3 4 6 8 5 2 3 2 5 6 6 7 10 6 4 5 6 5 8 15 20 20 23 25 27 27 26 24 23
5 4 10 15 17 19 16 13 14 9 5 5 4 2 2 3 1 3 3 2 3 3 2 1 1 1 2 2 1 1 1 0 1 0 1 2 3 2 4 5 3 2 3 2 2 2 2 1 3 6 6 7 7 7 4 2 2 5 5 5 6 6 6 6 4 4 5 3 4 8 12 13 14 13 11 9 7 7 12 16 20 23 25 27 28 27 24 22
5 2 1 5 11 15 14 10 10 8 5 5 3 1 2 2 1 2 2 1 2 2 2 2 1 1 0 1 1 1 2 1 0 1 2 3 3 2 4 6 5 5 5 4 3 3 4 2 4 6 8 10 8 8 5 2 5 9 9 8 7 7 7 7 7 7 5 3 6 12 11 11 16 17 13 11 9 7 10 16 21 24 25 26 25 23 21 21
4 3 4 4 3 3 5 4 7 9 6 4 3 2 2 2 1 1 0 1 2 1 1 1 2 1 2 3 2 1 2 2 1 2 1 2 2 2 1 4 5 6 6 4 3 4 4 3 5 4 6 10 8 9 9 6 7 8 9 11 10 9 10 13 15 12 8 6 13 13 8 9 14 17 14 13 12 11 17 23 23 24 24 21 20 19 20 21
11 9 7 7 5 5 6 7 11 13 7 4 3 2 2 3 2 2 1 1 2 1 1 1 3 3 3 4 3 2 2 1 2 3 2 2 2 0 1 3 3 6 6 3 2 3 3 3 4 3 5 10 10 11 10 8 7 7 10 13 12 11 14 16 17 14 12 13 18 18 14 13 16 17 17 20 22 22 24 24 21 21 21 18 18 20 21 22
10 8 10 14 12 9 9 7 8 9 5 4 3 1 2 5 4 2 2 2 1 2 1 2 5 5 3 4 5 3 6 5 4 5 4 4 2 2 3 3 3 3 3 2 0 1 2 3 1 3 3 8 8 8 7 6 7 7 11 13 12 11 12 13 13 12 10 13 18 17 15 15 19 20 19 23 25 21 20 20 19 20 20 19 20 22 22 22
11 14 19 20 10 4 4 4 3 5 3 3 2 2 2 4 5 4 2 2 3 3 2 3 4 3 1 2 4 6 8 7 7 7 7 6 5 5 4 4 5 4 2 2 1 2 2 2 2 5 3 7 5 5 6 4 5 9 14 18 16 12 9 9 10 9 10 12 13 10 8 11 15 12 10 15 18 15 17 21 21 22 22 23 24 24 23 23
19 19 16 13 6 2 3 3 3 4 2 1 2 4 3 4 7 6 2 2 4 3 2 4 5 2 1 2 6 7 7 8 8 8 7 8 9 9 8 7 7 6 4 3 1 1 3 2 1 2 2 7 4 5 6 7 8 10 12 14 14 11 8 6 7 8 12 11 7 6 9 11 8 3 4 9 10 11 18 23 23 24 25 24 24 24 24 24
Wind_Direction
63 61 62 62 62 63 66 73 82 100 121 149 162 171 183 190 211 262 335 354 357 358 4 12 13 14 50 126 142 148 158 155 141 143 90 24 10 348 344 334 326 313 274 229 202 191 195 195 204 209 209 209 222 227 216 220 200 167 113 118 197 210 270 309 231 141 105 96 40 52 78 100 86 65 82 70 61 65 69 65 71 80 84 90 103 119 126 134
69 65 62 56 50 47 43 45 46 52 66 109 158 188 210 224 237 270 317 338 341 341 353 6 14 22 72 142 156 159 157 145 111 57 31 15 359 347 344 337 334 318 290 227 204 195 196 196 210 217 218 215 214 214 216 205 181 168 100 106 223 198 80 358 334 115 105 122 86 66 72 72 59 61 84 78 45 54 61 50 66 75 78 92 103 119 131 139
76 70 61 50 39 33 30 29 28 28 26 21 359 283 240 239 242 260 296 316 326 327 339 356 4 18 82 158 174 171 156 153 73 15 11 5 353 345 339 334 334 322 305 239 220 221 223 209 199 205 212 217 224 215 203 183 181 188 115 99 234 188 69 27 66 112 119 117 95 74 75 64 53 75 92 95 60 48 49 34 57 65 68 84 94 109 125 134
74 67 54 43 36 36 36 33 28 22 10 357 340 316 267 247 235 232 243 257 272 282 305 337 342 1 75 169 180 177 163 158 12 6 359 355 349 342 336 328 328 327 317 267 226 226 235 215 211 178 173 206 221 201 196 188 189 176 115 150 184 158 63 50 94 110 111 103 96 86 80 68 60 69 87 98 73 41 42 47 62 71 76 87 96 106 117 126
63 52 40 36 41 46 43 37 26 14 0 343 323 301 275 259 240 226 223 224 227 231 266 324 326 346 63 168 181 192 190 336 352 355 348 344 345 342 337 326 325 328 322 293 186 189 217 184 196 170 156 196 160 169 201 191 174 94 49 101 150 133 74 76 102 105 105 97 91 77 77 86 72 60 63 82 83 59 59 67 83 87 90 95 101 108 115 118
47 39 38 42 46 43 35 29 21 18 15 10 354 322 295 269 247 231 221 226 225 224 275 330 324 6 71 137 151 180 170 49 345 345 342 340 342 346 346 332 326 327 329 286 168 145 124 143 171 165 148 121 131 159 236 201 174 109 43 54 101 108 98 104 101 102 104 91 81 82 91 102 87 64 64 77 83 94 89 91 94 93 98 102 106 110 112 111
47 44 49 52 48 38 33 28 22 21 18 18 12 3 341 288 256 230 207 207 207 177 15 44 60 63 101 121 112 92 72 38 357 351 345 343 342 345 351 342 328 332 337 223 201 162 103 89 87 89 72 66 86 291 334 146 113 101 77 65 86 97 100 108 103 100 98 92 93 97 94 89 90 84 72 77 86 97 98 98 97 99 102 106 109 105 105 104
59 60 61 56 46 36 32 27 22 21 17 14 8 11 18 8 270 206 183 171 161 106 55 64 74 96 119 129 116 65 39 20 2 358 351 350 343 347 349 338 328 347 144 202 194 147 97 67 63 59 80 82 9 320 66 89 83 86 113 100 93 97 102 105 101 99 97 97 96 90 85 83 91 92 78 80 94 98 103 102 100 106 105 106 102 97 100 100
71 71 64 53 42 33 29 24 22 21 18 14 8 11 20 35 82 153 157 157 130 102 86 81 84 108 128 143 125 56 28 16 7 2 2 6 6 11 356 322 90 156 168 171 102 105 94 71 67 57 111 118 35 16 58 67 68 100 125 119 109 107 111 107 101 102 101 101 93 84 83 89 93 86 70 77 98 102 110 106 105 110 105 99 96 96 98 98
77 71 61 51 41 32 26 21 18 17 17 15 12 19 30 45 76 118 142 148 120 110 97 81 78 97 130 138 103 69 25 21 19 12 8 12 24 21 349 354 86 144 164 155 95 74 75 71 64 64 125 108 64 48 46 76 113 114 114 113 115 117 119 112 109 108 100 96 95 91 75 64 77 92 73 91 105 112 120 103 105 108 100 97 98 100 99 101
78 69 59 47 38 28 22 20 18 15 16 14 16 33 53 63 79 107 128 132 122 125 108 88 82 91 112 98 77 62 24 20 17 15 8 3 26 29 7 54 69 101 128 102 57 52 58 63 75 111 138 88 76 74 69 104 121 117 110 98 99 109 114 111 116 115 99 96 97 95 80 50 53 86 107 128 113 124 125 102 102 102 100 102 104 106 107 110
71 62 51 38 30 21 19 22 21 18 18 21 25 51 73 77 89 106 118 123 126 134 118 91 84 86 91 68 58 42 23 18 10 10 5 358 29 51 43 52 61 81 86 51 45 51 58 68 86 92 91 98 116 85 87 119 125 120 112 105 106 109 103 86 115 120 100 128 110 83 73 43 36 93 125 126 118 121 111 103 103 103 106 108 110 113 111 112
57 50 39 28 22 17 19 22 24 26 27 25 23 52 80 85 93 104 113 120 128 131 112 76 72 65 65 61 47 32 25 18 8 9 14 20 42 61 60 65 78 83 79 72 70 65 63 71 93 88 78 87 117 92 99 124 126 122 107 115 153 114 28 9 57 117 84 129 245 333 48 43 45 128 138 130 122 116 103 104 107 106 111 111 113 115 112 114
40 34 26 21 19 17 20 22 24 29 35 36 36 53 80 93 101 113 117 122 132 132 114 79 75 64 68 71 45 28 23 17 14 19 32 40 50 65 73 80 81 81 79 80 83 76 74 94 104 84 62 58 98 110 83 86 107 110 88 96 117 102 43 19 27 50 72 28 337 112 114 173 162 147 157 146 131 120 107 108 112 113 116 116 118 119 118 119
14 15 15 16 19 19 21 21 25 35 45 50 58 76 91 101 108 116 117 121 129 127 118 92 74 60 63 63 38 24 19 21 26 24 29 41 56 71 85 88 82 84 83 84 92 85 83 105 93 61 38 46 72 100 50 22 38 53 100 319 4 93 155 30 20 20 94 46 38 80 118 159 168 159 166 153 140 128 116 117 121 121 123 123 126 126 126 125
350 3 6 11 21 22 21 22 33 46 60 77 87 91 93 102 109 117 121 124 127 125 121 90 55 50 56 37 17 21 18 18 20 17 29 45 61 79 91 92 84 83 84 89 101 96 80 86 72 47 38 42 48 78 61 32 1 6 105 157 19 112 142 13 22 19 30 77 24 41 133 154 170 159 160 153 142 130 124 129 132 131 133 133 135 136 135 134
327 342 350 6 20 25 22 33 59 63 86 103 100 98 100 101 103 111 120 122 121 118 114 101 68 60 57 28 10 16 16 15 14 18 44 49 57 76 83 86 83 82 90 97 101 94 73 63 67 47 40 41 23 74 76 34 345 337 40 89 96 128 106 94 28 19 31 69 41 47 110 131 143 149 154 156 149 136 135 144 148 147 148 146 147 148 148 148
321 330 343 360 11 26 31 65 93 93 110 113 103 100 104 104 106 108 112 126 121 104 88 78 78 78 47 20 12 9 14 20 22 28 45 48 54 73 72 71 94 97 93 92 72 62 66 50 57 69 27 28 14 55 97 180 170 209 36 95 82 75 84 91 111 2 37 67 76 76 97 120 134 149 155 156 156 149 149 157 162 162 162 162 162 159 161 163
327 324 334 345 349 20 43 98 119 122 115 108 100 96 98 100 100 92 85 87 84 82 70 44 54 108 68 11 13 20 30 32 37 50 73 64 65 89 85 80 105 105 79 71 35 35 55 43 41 44 351 353 348 51 147 187 150 145 142 118 109 69 54 63 63 61 78 73 61 87 116 140 149 159 157 158 164 157 158 166 169 174 177 175 174 174 176 177
346 320 305 314 316 11 63 107 137 149 134 118 109 100 102 97 86 72 69 71 69 72 76 63 63 87 80 17 18 34 45 41 44 55 70 77 90 100 83 81 89 76 54 51 29 32 59 64 31 352 287 303 309 283 191 175 110 107 97 82 81 92 84 42 139 130 94 79 24 76 121 147 163 176 169 164 165 162 165 173 178 185 188 186 186 187 189 192
12 332 299 314 305 16 77 107 136 166 175 170 160 138 146 112 98 93 82 76 70 69 67 64 67 67 57 27 25 32 48 49 50 52 49 53 117 110 56 62 75 57 11 21 67 47 60 68 357 321 280 300 354 14 115 88 83 89 101 94 60 81 134 87 135 220 8 79 96 114 119 147 176 184 179 169 169 176 179 181 187 192 194 195 195 196 200 202
10 344 350 20 348 25 79 111 114 158 174 175 187 191 140 129 121 111 100 93 77 65 57 55 57 54 52 45 34 35 45 44 38 38 41 54 77 93 68 62 65 49 340 17 71 48 53 52 330 330 311 38 48 45 87 81 83 83 83 102 66 49 99 56 69 16 6 87 160 171 128 159 215 206 191 184 187 197 196 196 199 200 200 202 203 205 207 211
349 359 17 26 28 28 87 119 109 151 132 147 172 151 127 124 117 106 100 102 85 55 42 42 42 37 38 43 35 40 49 41 17 19 31 56 71 76 82 73 65 66 20 36 91 83 75 356 319 333 337 58 61 33 64 75 65 68 68 92 104 340 112 141 18 40 25 72 144 150 117 190 261 277 228 202 204 211 208 212 215 211 212 213 214 215 216 221
352 10 21 24 39 46 121 132 100 154 148 152 163 153 138 127 119 110 100 98 93 42 33 36 31 29 25 19 20 44 52 45 22 16 24 55 76 72 81 83 70 66 46 71 88 86 100 310 318 345 16 56 72 37 43 67 43 28 82 113 133 247 144 147 166 125 51 41 106 127 64 314 227 231 248 217 215 221 212 213 218 218 220 224 224 223 226 231
2 10 20 25 44 62 128 156 109 169 171 152 160 157 146 133 123 113 95 86 84 10 17 26 22 22 14 10 29 86 57 43 28 17 21 43 75 96 85 82 69 63 181 95 80 77 60 343 346 35 32 39 70 51 32 86 83 359 268 154 150 195 168 121 126 130 51 12 206 141 57 305 241 220 235 225 222 229 215 214 218 218 220 223 223 224 227 232
5 5 14 21 43 65 152 193 210 186 163 147 161 160 149 142 125 97 71 70 42 336 358 10 9 15 10 8 16 139 68 29 24 22 26 33 47 120 105 38 65 139 186 117 81 95 19 0 28 73 50 42 62 61 3 99 92 11 246 147 136 154 150 138 143 134 63 300 230 151 130 277 289 248 231 207 218 240 232 226 223 221 221 222 224 226 227 231
6 1 2 6 23 42 215 206 213 196 164 157 167 167 160 152 129 76 32 47 13 320 356 359 360 19 21 20 30 118 35 325 5 27 34 34 41 103 104 4 53 102 206 127 73 55 349 5 21 43 49 49 52 38 293 107 98 263 211 118 133 153 153 158 153 155 184 133 72 143 157 270 283 270 229 173 206 247 247 242 233 225 222 223 226 228 230 233
9 355 347 350 337 261 205 201 209 194 172 169 173 175 175 164 150 30 69 73 345 326 6 351 11 27 33 43 52 76 52 357 13 20 32 48 55 82 79 39 107 55 355 107 127 277 328 13 11 31 41 36 44 301 266 125 114 251 268 50 150 160 159 155 138 151 176 87 27 264 203 283 268 288 41 134 209 252 246 239 233 227 224 223 226 229 231 237
8 354 340 328 286 230 185 191 203 186 176 174 175 183 185 171 159 27 74 107 319 353 10 351 6 3 7 42 47 49 46 39 39 11 39 61 64 75 78 59 94 76 36 67 129 206 203 40 17 69 52 353 278 280 265 133 280 284 7 47 65 100 108 111 115 121 62 64 249 249 160 156 274 280 63 126 231 249 244 238 229 226 225 224 227 230 233 238
3 359 351 327 276 211 178 184 192 173 166 167 171 177 173 159 116 52 58 205 343 355 343 5 360 342 360 23 26 25 36 37 27 30 53 63 64 69 79 72 69 72 43 47 76 203 299 296 31 67 39 297 265 290 255 148 301 329 52 52 37 44 52 60 61 87 65 351 248 234 165 134 301 273 198 189 219 224 228 237 229 223 223 226 229 231 234 237
3 6 5 358 283 183 177 177 162 151 153 153 151 149 148 134 66 84 95 260 333 343 347 11 352 352 16 38 9 4 19 22 15 30 45 44 47 45 46 53 46 46 30 24 26 351 358 22 345 329 347 344 330 278 305 357 2 29 63 58 50 4 11 23 357 39 78 271 251 242 220 150 208 259 229 222 235 222 209 220 217 213 219 225 228 232 235 238
16 17 19 33 103 153 165 167 143 138 142 139 140 142 138 70 26 95 280 311 318 343 358 322 328 2 15 29 15 344 353 14 14 34 47 34 43 35 33 46 22 40 29 355 359 2 9 1 322 308 341 14 41 61 329 347 12 31 44 55 75 358 4 16 331 12 144 245 241 240 288 215 229 251 240 231 240 230 218 223 224 219 221 226 229 232 235 238
34 38 45 59 80 102 135 151 138 137 142 139 140 140 103 69 56 235 295 336 306 307 349 290 324 355 19 33 8 327 358 17 9 29 37 59 59 25 11 27 48 120 113 122 74 16 349 313 335 346 347 13 58 92 356 330 355 14 56 82 92 84 40 321 284 336 291 266 275 341 354 287 276 275 233 226 249 238 226 232 237 234 234 235 235 234 236 238
57 58 62 70 78 81 99 124 139 147 149 144 138 87 61 83 194 265 300 276 286 334 8 7 329 353 41 55 332 319 34 22 15 37 17 41 51 2 337 357 16 74 101 87 106 106 92 310 325 58 330 350 56 137 162 164 349 348 137 121 108 137 134 235 241 239 277 283 299 320 318 205 245 277 228 243 281 255 225 231 236 239 242 244 243 239 237 239
69 67 68 70 73 78 90 112 136 150 158 151 94 60 81 139 232 153 253 262 295 332 323 1 49 38 12 346 332 359 55 354 36 59 29 37 67 11 347 329 351 40 86 89 229 127 96 248 257 43 322 359 39 241 151 107 23 313 109 89 56 177 149 146 204 201 231 307 303 292 238 216 219 256 261 289 302 262 226 232 233 237 241 238 240 239 237 240
72 69 66 62 64 68 84 122 142 151 163 147 71 59 132 187 209 170 185 266 75 314 312 343 45 57 351 316 340 357 4 13 38 52 32 45 97 7 339 286 329 33 92 119 173 118 90 270 279 4 351 20 21 331 40 86 228 334 49 72 223 171 122 106 272 320 50 8 286 267 253 284 318 305 313 345 308 273 248 243 237 235 237 234 235 237 238 242
70 64 58 55 54 48 53 108 152 163 159 110 77 90 196 185 177 189 222 342 214 130 81 18 9 54 342 316 321 330 348 19 40 52 42 25 50 8 329 299 309 34 64 131 183 168 135 270 297 27 57 294 339 351 6 43 122 110 95 208 184 86 77 95 29 350 28 279 277 280 254 286 328 301 314 335 282 268 255 243 241 241 237 235 237 239 243 248
67 59 51 45 42 37 45 67 127 163 133 81 75 113 144 151 192 223 286 340 203 86 78 99 233 110 162 91 302 311 349 16 1 38 56 305 17 69 345 302 264 18 10 97 153 110 119 39 300 242 170 292 354 26 351 351 50 108 147 162 118 97 326 56 109 292 351 276 283 299 289 273 227 235 280 274 244 252 256 242 238 241 237 235 239 243 249 254
60 57 45 32 32 41 47 61 138 143 108 77 83 135 132 148 111 290 351 17 144 87 75 136 216 52 102 135 247 300 355 38 11 43 80 139 338 67 90 270 267 352 0 54 137 301 104 113 283 273 244 300 17 54 251 296 6 66 78 28 43 133 172 188 161 172 182 246 277 310 320 272 229 216 216 236 238 241 253 245 231 238 238 238 242 247 252 256
78 70 44 21 27 41 36 84 125 102 83 89 150 147 136 148 120 55 52 38 96 84 82 187 128 67 54 132 191 294 7 54 82 81 90 151 90 307 47 137 270 334 349 30 93 354 35 113 249 291 326 312 270 227 196 186 175 82 41 316 311 66 123 186 220 149 137 166 216 293 300 264 243 204 195 236 251 239 239 240 240 244 244 244 247 250 254 258
100 85 35 22 18 350 33 88 75 66 73 102 115 101 90 133 133 59 46 59 74 71 97 141 125 123 144 108 257 273 355 35 46 80 229 319 90 270 308 123 254 323 344 22 46 10 4 124 202 281 321 253 232 240 200 185 177 156 178 211 186 156 114 80 294 288 102 160 182 182 278 270 249 178 197 233 243 245 245 239 241 249 250 247 248 251 255 261
91 91 16 27 44 135 121 83 37 32 89 84 77 93 109 126 108 41 41 63 66 54 68 97 98 105 140 158 262 280 86 62 13 69 177 222 169 175 211 28 314 323 37 27 319 301 168 100 100 266 255 226 246 282 256 213 180 139 184 193 137 132 124 127 222 263 286 224 174 122 265 272 251 177 205 233 239 253 255 240 238 248 249 247 250 255 258 262
73 70 16 33 78 106 101 77 13 24 74 85 94 87 88 114 88 45 42 43 37 41 52 56 47 76 151 211 128 106 111 139 199 181 190 223 212 184 176 119 322 8 83 42 281 316 27 77 60 291 293 306 306 325 351 353 68 115 244 171 139 158 144 151 179 185 207 236 185 125 253 269 271 222 227 248 253 256 252 241 240 247 250 251 254 257 259 260
74 62 45 46 156 140 97 106 116 72 81 101 91 68 66 79 63 48 43 23 25 79 74 58 106 86 171 166 103 144 195 140 211 214 162 181 192 185 171 129 111 167 129 214 173 77 319 90 81 349 334 340 340 345 343 337 358 220 242 189 152 124 106 125 147 105 248 230 178 162 247 259 273 309 271 265 268 256 249 246 246 249 253 257 258 260 262 261
78 60 51 58 95 115 104 125 133 127 132 105 83 53 63 65 44 45 65 49 53 84 94 120 177 84 63 97 75 44 186 100 274 284 86 168 229 201 189 190 174 149 159 202 164 126 165 183 125 104 290 280 284 291 281 266 240 235 247 220 188 145 136 158 135 104 231 231 166 168 245 260 273 305 294 277 269 264 260 258 257 258 260 263 263 263 263 260
88 68 47 55 74 85 89 108 115 115 138 121 82 32 65 70 32 44 53 56 58 68 82 104 185 77 36 56 74 319 293 356 53 105 148 222 258 236 199 199 198 181 159 140 145 129 111 192 190 171 192 214 223 239 233 179 228 260 261 244 213 183 158 130 113 168 201 191 183 220 245 271 283 282 282 279 263 258 266 269 271 271 272 273 270 265 264 260
83 75 53 57 67 74 78 89 99 106 141 140 109 98 93 79 337 23 33 58 76 80 86 66 67 106 78 109 109 276 275 318 75 172 183 211 250 272 214 207 216 217 187 155 162 125 91 294 240 192 218 235 234 249 257 228 243 251 255 250 222 196 166 154 193 211 158 129 254 245 234 255 274 272 272 277 272 267 275 280 283 284 284 283 275 266 262 257
93 95 103 111 103 71 64 79 99 100 107 117 112 126 106 72 53 132 123 47 69 103 125 27 358 329 193 172 137 210 274 335 292 233 194 217 259 347 270 229 220 209 186 161 173 135 116 248 239 188 244 260 258 263 264 252 250 245 244 247 232 198 180 195 220 216 163 196 254 256 228 230 262 273 274 275 281 288 289 289 290 288 287 281 268 259 257 256
115 111 88 89 108 116 112 115 109 96 76 66 85 94 127 127 151 205 215 25 6 332 128 204 274 268 210 172 129 158 227 252 287 262 211 190 225 198 258 252 218 199 184 158 179 156 142 238 230 178 272 277 266 265 262 253 258 256 245 244 234 210 201 210 227 225 207 227 251 260 262 260 263 268 272 279 286 288 286 287 287 284 281 271 257 255 257 260
125 128 116 105 98 99 108 113 107 94 54 33 75 90 153 147 169 222 202 144 198 272 164 186 245 248 210 169 143 188 223 192 199 240 195 163 223 208 197 219 190 176 184 165 165 149 169 258 228 110 306 281 270 280 274 240 241 258 261 255 240 219 214 222 235 236 230 242 252 261 272 274 268 264 266 273 278 279 278 280 281 278 275 266 260 260 261 264
130 134 128 115 94 53 92 102 95 96 52 10 106 167 193 179 185 175 156 197 205 224 216 188 208 231 239 179 191 234 246 216 215 237 215 205 232 223 218 218 172 148 166 193 188 136 164 265 7 59 338 278 281 332 324 301 285 277 272 264 249 224 206 218 227 216 211 229 248 263 268 264 265 263 252 254 259 266 276 280 281 279 275 269 263 263 267 273
128 131 129 115 91 14 86 88 52 79 92 270 155 164 195 196 182 157 126 258 220 213 235 187 169 172 283 240 231 248 261 247 246 255 244 243 250 245 247 239 200 180 168 157 174 175 143 152 68 64 298 275 297 346 340 342 325 287 263 251 239 216 198 224 246 225 211 212 223 238 241 250 266 273 252 259 260 266 278 281 281 281 279 272 265 266 273 280